Location: Barrière d’Écaussines
(50.5914°N, 4.1351°E)
Time: 12:18:10
(UTC+00:00)

Daily predictions for brighter satellites

Satellite Brightness Start Highest point End
(mag) Time Altitude Azimuth Time Altitude Azimuth Time Altitude Azimuth
CSL-04 Debris 4.3 18:58:33 10° SSE 19:03:48 61° ENE 19:09:07 10° N
Meteor 1-22 Rocket 4.3 18:59:14 10° S 19:04:50 74° E 19:10:43 10° NNE
Cosmos 1898 Rocket 3.8 19:00:29 10° S 19:05:26 44° ESE 19:10:22 10° NE
CZ-4 R/B 1.6 19:02:22 10° SE 19:06:00 46° ENE 19:09:37 10° N
Resurs 01 Rocket 3.1 19:03:55 10° SSW 19:08:02 40° W 19:12:11 10° NNW
Okean O Rocket 3.2 19:07:22 10° ESE 19:10:28 19° ENE 19:13:35 10° NNE
Meteor 1-24 Rocket 3.7 19:07:56 10° NNW 19:13:24 90° ENE 19:19:00 10° S
Cosmos 1538 Rocket 4.2 19:08:36 10° NNW 19:13:46 77° WSW 19:18:54 10° SSE
Cosmos 2333 4.2 19:09:20 10° SSW 19:14:49 61° ESE 19:20:21 10° NE
Cosmos 372 Rocket 4.0 19:11:03 10° SSW 19:16:13 70° ESE 19:21:26 10° NNE
Cosmos 1680 Rocket 4.0 19:12:15 10° NNW 19:17:15 44° ENE 19:22:12 10° SE
Cosmos 2219 Rocket 2.3 19:15:19 10° S 19:20:42 52° ESE 19:26:07 10° NE
SPOT 5 2.8 19:16:37 10° SSE 19:21:24 86° WSW 19:25:57 10° NNW
CZ-4B R/B 3.6 19:20:06 10° SSE 19:23:42 87° ENE 19:27:26 10° NNW
Cosmos 2074 Rocket 4.0 19:17:53 10° S 19:24:05 80° E 19:30:23 10° NNE
Meteor 1-31 Rocket 2.5 19:22:49 10° SSE 19:26:20 89° ENE 19:29:54 10° NNW
Cosmos 1937 Rocket 3.7 19:21:52 10° S 19:26:57 50° ESE 19:32:04 10° NNE
SL-24 R/B - RUBIN 2 3.8 19:27:03 10° NW 19:31:23 60° NE 19:35:18 14° ESE
Cosmos 923 Rocket 4.0 19:27:59 10° NNW 19:33:20 75° ENE 19:38:37 10° SSE
Cosmos 2369 Rocket 4.5 19:31:27 10° N 19:33:23 12° NNE 19:35:18 10° NE
USA 186 3.1 19:34:28 12° ENE 19:34:35 12° ENE 19:35:30 10° NE
Cosmos 2112 Rocket 4.3 19:29:46 10° NNW 19:34:52 50° ENE 19:39:17 13° SE
USA 234 3.3 19:28:20 10° ENE 19:34:56 81° SSE 19:41:30 10° SW
NOSS 2-3 (E) 4.2 19:31:58 10° NW 19:36:47 71° NE 19:42:19 14° SE
COSMOS 2428 3.6 19:33:34 10° SSE 19:38:14 26° ESE 19:42:54 10° NE
NOSS 2-3 (C) 4.3 19:35:33 10° NW 19:40:13 60° NE 19:45:27 15° ESE
Cosmos 1953 3.0 19:36:58 10° SSW 19:40:27 51° WNW 19:44:00 10° N
Meteor 1-15 Rocket 4.3 19:35:08 10° SSW 19:40:42 83° WNW 19:46:20 10° N
PAYLOAD B 4.2 19:35:15 10° SSE 19:40:44 79° ENE 19:46:16 10° NNW
CZ-4B R/B 3.3 19:35:48 10° SSE 19:41:16 67° ENE 19:46:52 10° N
MetOp-B 4.2 19:36:21 10° SSE 19:41:39 67° ENE 19:47:00 10° N
CZ-4B DEB 4.2 19:36:25 10° SSE 19:41:53 90° ENE 19:47:24 10° NNW
CSL-04 Rocket 4.2 19:36:46 10° S 19:42:15 65° WSW 19:47:49 10° NNW
Cosmos 2278 Rocket 3.0 19:38:29 10° NNW 19:43:45 36° NE 19:47:49 16° ESE
NOSS 3-2 (C) 4.1 19:41:32 10° NW 19:48:42 87° SW 19:56:22 14° SE
Cosmos 1610 Rocket 4.5 19:42:49 10° S 19:49:06 76° E 19:55:22 10° NNE
Cosmos 2333 Rocket 3.3 19:43:58 10° SW 19:49:26 48° NW 19:54:56 10° NNE
Ariane Rocket 4.5 19:46:48 14° E 19:49:33 21° ENE 19:53:18 10° N
Cosmos 1703 Rocket 3.6 19:49:15 10° NNW 19:53:36 77° W 19:57:52 10° S
Geosat 3.9 19:49:30 10° NE 19:54:32 71° ESE 19:59:31 10° SSW
BREEZE-M DEB (TANK) 1.9 19:53:52 10° W 19:56:20 75° S 19:59:33 17° E
Spot 2 Rocket 3.7 19:53:55 17° SE 19:57:39 51° ENE 20:02:32 10° N
Cosmos 1470 Rocket 4.1 19:53:36 10° SSW 19:57:57 62° WNW 20:02:17 10° N
NOSS 2-3 (D) 4.2 19:54:13 10° NW 19:59:06 89° NE 20:03:53 19° SE
Lacrosse 5 rocket 1.2 19:56:17 10° SSW 19:59:16 36° SE 20:00:40 23° E
ARIANE 6 FM1 Upper Stage 2.7 19:56:31 10° SW 20:00:38 78° NW 20:04:41 10° NE
CZ-2C R/B 4.3 20:00:39 13° ENE 20:00:44 13° ENE 20:02:14 10° NNE
ERS-1 Rocket 3.1 19:58:18 10° S 20:03:18 77° WSW 20:08:20 10° NNW
Cosmos 1933 Rocket 3.4 20:01:00 10° S 20:05:20 75° E 20:09:46 10° NNE
Cosmos 1943 Rocket 2.4 20:03:53 10° NNW 20:09:31 60° NE 20:12:59 23° SE
Helios 1A Rocket 3.5 20:07:46 10° N 20:10:53 44° WNW 20:13:58 10° SW
YAOGAN 11 4.3 20:07:21 10° NNE 20:11:25 44° E 20:13:55 21° SSE
Cosmos 2218 Rocket 4.1 20:06:04 11° SSE 20:11:46 50° E 20:17:40 10° NNE
Meteor 1-12 Rocket 4.4 20:08:51 10° SSW 20:14:51 87° WNW 20:20:55 10° NNE
In-Cosmos 22 Rocket 4.0 20:09:27 10° NNW 20:14:51 87° ENE 20:19:03 17° SSE
USA 59 Rocket 1.3 20:13:18 10° NNW 20:15:47 21° NNE 20:17:17 16° ENE
MOS 1-B 4.3 20:14:21 19° SSE 20:18:38 77° ENE 20:24:25 10° NNW
Cosmos 1733 Rocket 3.8 20:18:20 29° ESE 20:19:13 31° E 20:23:05 10° NNE
NOSS 3-4 (A) 4.3 20:23:14 22° E 20:23:14 22° E 20:26:26 10° ENE
CZ-4B R/B 3.9 20:20:21 27° ESE 20:22:25 42° ENE 20:26:56 10° N
SeaSat 1 4.0 20:19:54 16° E 20:22:26 24° NE 20:26:21 10° NNW
NOSS 3-4 (C) 4.4 20:23:46 22° E 20:23:46 22° E 20:26:57 10° ENE
Cosmos 494 Rocket 4.1 20:17:53 10° NNW 20:23:03 77° WSW 20:26:29 22° SSE
Okean-O 2.5 20:20:35 26° SSE 20:23:04 78° ENE 20:27:28 10° NNW
ATLAS 3B R/B 3.9 20:17:35 10° WSW 20:25:07 50° NNW 20:32:47 10° NE
Cosmos 1821 Rocket 4.3 20:22:24 21° SSE 20:26:16 48° E 20:32:16 10° NNE
Cosmos 962 Rocket 4.5 20:21:04 10° S 20:27:20 88° W 20:33:34 10° N
Cosmos 1048 Rocket 4.0 20:22:24 10° NNW 20:27:30 64° ENE 20:29:52 31° SE
Cosmos 2360 Rocket 3.7 20:23:05 10° WSW 20:28:21 40° NW 20:33:40 10° NNE
Timation 2 Rocket 4.1 20:26:43 10° NNW 20:32:57 68° NE 20:36:19 30° SE
Cosmos 1869 Rocket 3.6 20:30:58 10° SSW 20:35:20 77° W 20:39:46 10° N
Cosmos 2322 Rocket 4.0 20:31:25 10° WSW 20:36:27 33° NW 20:41:33 10° NNE
ADEOS 4.4 20:32:47 10° S 20:37:42 47° W 20:42:46 10° NNW
Terra 2.9 20:34:16 10° SSW 20:38:39 41° W 20:43:08 10° NNW
Aureole 3 3.7 20:34:42 10° N 20:38:42 57° ENE 20:40:03 40° SE
Meteor 2-21 4.4 20:33:27 10° N 20:39:35 71° ENE 20:42:49 29° SSE
CZ-4 R/B 3.9 20:37:38 10° SW 20:40:15 18° W 20:42:53 10° NW
NOSS 2-1 (D) 4.4 20:39:06 10° NNW 20:41:52 27° NE 20:42:33 25° ENE
ATLAS 5 CENTAUR R/B 4.1 20:43:11 10° NNW 20:44:25 12° N 20:45:41 10° NNE
Cosmos 2242 Rocket 3.5 20:40:27 10° N 20:44:58 75° ENE 20:46:21 44° SSE
Okean O Rocket 2.0 20:43:57 26° S 20:46:16 60° WSW 20:50:35 10° NNW
SL-08 R/B 3.7 20:42:21 10° N 20:47:12 66° WNW 20:52:03 10° SSW
Cosmos 2237 Rocket 2.6 20:47:31 37° SE 20:48:16 38° ESE 20:53:29 10° NE
Cosmos 1980 4.0 20:47:57 37° SE 20:49:03 41° ESE 20:54:20 10° NE
Cosmos 1025 Rocket 3.6 20:45:10 10° N 20:49:09 37° ENE 20:49:24 37° E
Cosmos 1125 Rocket 4.3 20:51:20 32° E 20:51:20 32° E 20:55:32 10° NE
CZ-4B R/B 2.4 20:51:35 70° SE 20:51:57 83° ENE 20:55:30 10° NNW
Cosmos 2322 3.7 20:46:26 10° SSW 20:52:10 87° WNW 20:57:57 10° NNE
ASTEX 1 3.3 20:50:47 39° SSE 20:52:36 79° E 20:57:31 10° N
Cosmos 2292 Rocket 4.3 20:47:14 10° N 20:52:57 49° ENE 20:54:03 41° ESE
Cosmos 2341 Rocket 4.1 20:47:55 10° SSW 20:54:08 75° W 21:00:28 10° N
Cosmos 1400 Rocket 3.5 21:03:02 37° NE 21:03:02 37° NE 21:05:31 10° NNE
USA 186 4.1 21:04:43 14° WNW 21:04:43 14° WNW 21:05:27 10° NW
SPOT 3 Rocket 3.5 21:02:11 42° SSE 21:04:01 87° WSW 21:09:15 10° NNW
Cosmos 2219 Rocket 3.8 20:59:47 10° WSW 21:04:52 35° NW 21:09:58 10° NNE
Meteor 2-21 Rocket 4.3 21:06:30 10° N 21:12:37 85° ENE 21:14:50 43° SSE
USA 234 3.8 21:11:25 10° ENE 21:17:49 57° NNW 21:24:11 10° W
USA 245 3.9 21:17:15 46° SW 21:17:56 52° W 21:22:26 10° NNW
Cosmos 2369 Rocket 3.3 21:14:19 10° NNW 21:19:19 31° NE 21:20:57 27° ENE
Cosmos 1674 Rocket 3.3 21:15:29 10° N 21:19:48 87° E 21:19:57 83° SSE
COSMOS 2428 3.1 21:16:22 10° SW 21:22:02 63° WNW 21:27:46 10° NNE
Helios 1B rocket 3.9 21:23:49 21° NE 21:23:49 21° NE 21:25:42 10° N
NOSS 0 Rocket 3.9 21:18:43 10° SSW 21:24:58 87° WNW 21:31:15 10° NNE
Cosmos 1727 Rocket 4.1 21:19:42 10° NNW 21:26:04 75° W 21:28:33 39° S
Ariane Rocket 3.1 21:26:52 52° SSW 21:27:58 69° WSW 21:33:00 10° NNW
Cosmos 2278 Rocket 2.8 21:22:32 10° NW 21:28:00 50° WSW 21:29:39 38° SSW
USA 238 DEB 4.0 21:22:07 10° NW 21:29:26 73° SW 21:32:16 43° SSE
USA 238 4.0 21:22:17 10° NW 21:29:37 74° SW 21:32:26 43° SSE
Cosmos 2221 Rocket 3.6 21:26:03 10° N 21:30:11 66° NE 21:30:11 66° NE
CZ-2C R/B 4.2 21:32:30 27° NW 21:32:30 27° NW 21:34:12 10° NNW
Cosmos 1346 Rocket 3.3 21:28:49 10° NNW 21:31:34 49° N 21:31:34 49° N
Lacrosse 5 rocket 3.0 21:32:48 10° W 21:34:04 21° W 21:34:04 21° W
Cosmos 1378 Rocket 4.4 21:35:28 10° NNW 21:39:38 42° W 21:40:16 39° WSW
DNEPR-1 R/B 4.2 21:45:57 46° NE 21:45:57 46° NE 21:49:09 10° NE
Meteor 2-8 Rocket 4.4 21:47:10 46° SSW 21:49:05 78° W 21:55:12 10° N
Cosmos 1656 Rocket 3.4 21:44:27 10° NNW 21:49:55 84° ENE 21:50:17 77° ESE
Cosmos 1943 Rocket 3.6 21:48:10 10° NW 21:52:53 28° WSW 21:54:29 24° SW
Cosmos 614 Rocket 4.4 21:48:34 10° NNW 21:53:34 50° WSW 21:53:59 49° WSW
SL-16 R/B 3.3 21:58:05 30° ENE 21:58:05 30° ENE 22:01:27 10° NE
SeaSat 1 2.4 21:59:30 78° W 21:59:30 78° W 22:04:19 10° NNW
Cosmos 2123 Rocket 4.1 21:56:25 10° NNW 22:02:38 72° W 22:03:50 57° SSW
USA 59 Rocket 1.4 22:01:13 10° NW 22:02:48 27° WNW 22:02:48 27° WNW
Cosmos 1934 Rocket 3.9 22:03:44 65° S 22:04:47 90° E 22:11:05 10° N
Cosmos 1140 Rocket 4.3 22:03:53 10° NNW 22:08:44 39° NE 22:08:44 39° ENE
Cosmos 2346 Rocket 4.5 22:03:35 10° N 22:09:39 62° ENE 22:09:59 61° E
NOSS 3-4 (A) 3.3 22:10:28 45° WSW 22:12:11 74° NW 22:18:10 10° NE
NOSS 3-4 (C) 3.3 22:11:02 46° WSW 22:12:41 75° NW 22:18:43 10° NE
Cosmos 2285 Rocket 4.0 22:19:16 65° E 22:19:16 65° E 22:25:22 10° NNE
NOSS 3-1 (C) 4.0 22:19:49 10° NW 22:26:30 68° NE 22:28:44 48° ESE
Cosmos 1535 Rocket 4.3 22:26:51 83° SE 22:26:58 84° E 22:33:08 10° N
RESURS DK-1 4.2 22:30:06 25° NNE 22:30:06 25° NNE 22:31:53 10° NNE
ATLAS 5 CENTAUR R/B 4.0 22:25:41 10° NNW 22:27:56 15° NNE 22:29:34 13° NE
ALOS 2 3.9 22:29:40 35° NNE 22:29:40 35° NNE 22:32:42 10° N
Cosmos 2237 Rocket 3.1 22:29:12 24° WSW 22:32:15 45° NW 22:37:44 10° NNE
Cosmos 1125 Rocket 4.4 22:31:27 37° W 22:32:45 44° WNW 22:37:48 10° NNE
Cosmos 1605 Rocket 3.8 22:32:45 86° ESE 22:32:48 86° E 22:38:57 10° N
Cosmos 1269 Rocket 4.4 22:32:30 10° NNW 22:37:13 56° NE 22:37:13 56° NE
Cosmos 2297 3.7 22:31:59 10° NNW 22:37:29 80° N 22:37:29 80° N
ARIANE 5 R/B 3.7 22:40:11 40° N 22:40:11 40° N 22:43:07 10° N
Cosmos 1975 Rocket 4.1 22:38:24 10° NNW 22:41:32 43° NNW 22:41:32 43° NNW
COSMOS 2455 3.8 22:38:09 10° NNW 22:43:48 39° NE 22:45:16 34° ENE
Cosmos 2150 Rocket 4.4 22:54:11 58° N 22:54:11 58° N 22:58:25 10° NNE
Cosmos 2173 Rocket 4.5 22:55:45 46° ENE 22:55:45 46° ENE 23:00:56 10° NNE
Cosmos 2100 Rocket 4.3 23:00:25 52° ENE 23:00:25 52° ENE 23:05:50 10° NNE
USA 234 3.9 22:54:01 10° E 23:00:20 53° N 23:06:39 10° WNW
Cosmos 371 Rocket 4.5 22:58:46 10° NNW 23:02:35 37° NE 23:02:35 37° NE
Cosmos 2369 Rocket 2.7 22:58:11 10° NW 23:02:43 51° WNW 23:02:43 51° WNW
NOSS 3-1 (A) 4.1 23:10:55 10° NW 23:17:39 68° NE 23:19:58 47° ESE
Cosmos 1943 3.9 23:21:35 46° ENE 23:21:35 46° ENE 23:25:43 10° NE
SJ 16-02 3.0 23:30:47 10° NNW 23:33:17 31° N 23:33:17 31° N
Cosmos 407 Rocket 4.2 23:30:31 10° NNW 23:34:21 51° NNW 23:34:21 51° NNW
ACS3 Solar Sail 3.5 23:36:02 10° NE 23:40:10 19° E 23:40:25 19° E
SL-16 R/B 2.9 23:39:53 45° WNW 23:40:18 46° NW 23:45:46 10° NNE
Cosmos 1802 Rocket 4.0 23:43:35 74° ENE 23:43:35 74° ENE 23:49:35 10° NNE
CZ-2C R/B 3.0 23:44:18 66° NNE 23:44:18 66° NNE 23:49:10 10° NNW
Meteor 2-3 Rocket 4.0 23:41:07 10° NNW 23:45:50 62° NNW 23:45:50 62° NNW
Cosmos 1725 Rocket 4.0 23:48:08 73° ENE 23:48:08 73° ENE 23:54:09 10° NNE
